Date,TemperatureHighF,TemperatureAvgF,TemperatureLowF,DewpointHighF,DewpointAvgF,DewpointLowF,HumidityHigh,HumidityAvg,HumidityLow,PressureMaxIn,PressureMinIn,WindSpeedMaxMPH,WindSpeedAvgMPH,GustSpeedMaxMPH,PrecipitationSumIn
2013-1-1,80,70,62,67,62,58,88,78,61,30.21,30.05,20,6,30,0.00
2013-1-2,79,70,62,71,66,59,94,87,75,30.10,30.01,12,4,16,0.00
2013-1-3,81,72,64,73,68,63,96,87,64,30.14,30.04,16,5,21,0.00
2013-1-4,82,73,68,76,70,65,96,90,76,30.25,30.11,12,4,14,0.16
2013-1-5,86,72,64,72,67,63,94,84,63,30.27,30.15,13,6,16,0.00
2013-1-6,82,73,66,74,69,65,96,88,71,30.18,30.06,18,5,22,0.00
2013-1-7,83,75,70,74,70,67,95,86,69,30.16,30.08,12,6,16,0.01
2013-1-8,88,76,69,75,70,67,95,83,56,30.20,30.09,11,6,17,0.08
2013-1-9,88,77,71,74,71,68,95,80,59,30.26,30.15,14,6,21,0.00
2013-1-10,87,76,69,71,68,65,94,77,50,30.28,30.17,16,7,24,0.00
2013-1-11,86,74,66,71,66,64,95,78,52,30.26,30.13,13,5,16,0.00
2013-1-12,88,75,67,73,68,64,94,81,54,30.18,30.07,12,5,18,0.00
2013-1-13,85,73,65,71,66,62,94,81,63,30.13,30.06,15,5,19,0.00
2013-1-14,86,72,63,68,64,60,91,77,54,30.17,30.10,14,4,18,0.00
2013-1-15,82,72,62,71,65,60,94,80,59,30.15,30.05,13,4,18,0.00
2013-1-16,82,72,62,70,66,60,94,81,63,30.11,30.02,12,4,16,0.00
2013-1-17,79,70,64,73,65,55,94,84,72,30.14,30.01,19,6,29,0.00
2013-1-18,73,63,52,59,53,44,83,71,53,30.30,30.14,15,6,28,0.00
2013-1-19,80,69,62,68,64,58,93,83,65,30.24,30.11,11,5,15,0.00
2013-1-20,82,70,66,70,67,64,94,88,67,30.17,30.04,15,4,16,0.00
2013-1-21,73,68,64,69,65,63,95,90,84,30.11,30.02,16,5,21,0.00
2013-1-22,76,66,59,63,56,47,90,72,54,30.26,30.06,14,6,21,0.00
2013-1-23,80,66,56,58,50,46,72,59,42,30.33,30.23,16,7,19,0.00
2013-1-24,81,64,53,57,52,47,83,67,38,30.32,30.22,13,5,21,0.00
2013-1-25,79,64,52,60,54,48,89,73,48,30.31,30.19,14,4,16,0.00
2013-1-26,83,65,55,60,54,49,85,70,38,30.28,30.18,13,4,16,0.00
2013-1-27,86,71,58,66,60,53,91,70,47,30.29,30.19,14,6,17,0.00
2013-1-28,86,74,65,68,64,60,90,72,51,30.31,30.20,14,6,19,0.00
2013-1-29,83,74,65,71,67,62,93,81,65,30.24,30.10,21,8,26,0.00
2013-1-30,80,73,67,70,68,64,92,83,66,30.12,29.98,28,10,36,0.00
2013-1-31,73,65,53,71,58,39,94,79,50,30.22,29.95,17,7,22,0.05
2013-2-1,78,61,48,53,43,39,75,55,32,30.32,30.22,17,7,21,0.00
2013-2-2,81,64,51,58,49,39,79,60,40,30.29,30.14,12,4,17,0.00
2013-2-3,80,64,53,58,48,39,82,61,24,30.21,30.10,13,4,19,0.00
2013-2-4,74,61,48,54,48,40,91,65,29,30.17,30.04,8,3,12,0.00
2013-2-5,78,66,52,63,55,44,85,69,54,30.10,30.01,12,4,15,0.00
2013-2-6,79,70,59,68,63,56,87,78,65,30.12,30.03,10,3,15,0.00
2013-2-7,80,72,64,68,65,62,93,80,59,30.08,29.95,17,5,22,0.00
2013-2-8,77,72,66,71,68,63,94,86,68,30.07,29.91,16,6,19,0.00
2013-2-9,87,71,59,69,62,57,94,77,48,30.17,30.05,13,6,18,0.00
2013-2-10,84,74,65,66,63,60,84,71,49,30.23,30.13,15,7,20,0.00
2013-2-11,81,72,65,70,66,62,92,81,66,30.21,30.10,19,7,23,0.00
2013-2-12,81,73,65,73,69,63,95,86,75,30.12,29.98,23,8,28,0.00
2013-2-13,80,75,71,75,72,69,96,90,80,30.01,29.93,23,10,27,0.00
2013-2-14,79,67,61,74,65,59,95,91,84,30.05,29.89,19,8,27,1.28
2013-2-15,68,65,61,65,63,59,94,92,90,30.07,29.96,12,3,13,0.10
2013-2-16,69,64,60,63,56,46,94,78,57,30.13,29.93,30,9,36,0.00
2013-2-17,65,55,45,46,35,26,69,48,31,30.34,30.12,20,8,28,0.00
2013-2-18,77,58,42,53,44,33,80,61,41,30.34,30.21,15,6,23,0.00
2013-2-19,79,66,54,67,60,50,91,80,63,30.21,30.10,15,4,20,0.00
2013-2-20,86,70,60,68,62,58,95,79,46,30.12,30.01,10,2,12,0.00
2013-2-21,82,72,63,70,66,60,94,81,63,30.09,30.00,20,5,21,0.00
2013-2-22,84,74,66,73,69,64,95,84,63,30.10,30.01,21,6,27,0.00
2013-2-23,82,75,70,75,71,68,96,89,77,30.04,29.94,21,8,27,0.00
2013-2-24,82,74,70,75,72,69,96,90,75,30.00,29.92,12,4,17,0.00
2013-2-25,82,75,67,75,71,66,96,88,71,29.93,29.81,20,6,24,0.01
2013-2-26,82,77,71,76,73,68,92,88,80,29.92,29.78,39,14,39,0.00
2013-2-27,73,70,67,68,65,62,91,86,70,30.00,29.88,9,2,10,0.06
2013-2-28,71,67,62,63,59,56,87,78,62,30.05,29.95,12,4,17,0.00
2013-3-1,68,64,60,60,55,51,81,73,63,30.04,29.93,10,4,15,0.00
2013-3-2,64,59,54,50,47,44,79,65,58,30.07,30.01,16,5,25,0.04
2013-3-3,59,55,46,50,48,43,91,77,62,30.17,30.00,21,7,26,0.12
2013-3-4,66,55,42,50,45,37,84,70,47,30.24,30.14,12,4,20,0.00
2013-3-5,72,61,46,61,54,43,91,77,62,30.19,30.11,13,3,18,0.00
2013-3-6,71,65,59,65,56,48,89,74,57,30.15,30.04,28,9,31,0.00
2013-3-7,64,57,48,51,45,37,81,65,46,30.23,30.12,16,6,21,0.00
2013-3-8,75,62,48,57,51,44,89,71,41,30.23,30.13,14,5,19,0.00
2013-3-9,82,66,51,59,52,48,91,65,34,30.21,30.11,11,4,15,0.00
2013-3-10,85,69,57,62,58,52,89,70,43,30.17,30.04,15,6,22,0.00
2013-3-11,78,69,59,65,61,56,92,76,54,30.11,29.94,21,8,26,0.00
2013-3-12,74,69,63,70,65,58,92,89,83,30.04,29.91,19,8,31,0.00
2013-3-13,77,65,56,58,53,47,88,68,35,30.17,30.03,17,6,22,0.00
2013-3-14,76,62,55,53,46,38,79,59,26,30.25,30.15,20,7,26,0.00
2013-3-15,75,55,49,47,45,39,83,71,27,30.30,30.21,16,6,19,0.00
2013-3-20,78,72,66,68,65,63,92,80,71,30.00,29.84,14,6,24,0.12
2013-3-21,76,67,60,64,57,51,93,72,47,29.98,29.86,13,6,23,0.00
2013-3-22,80,68,54,72,61,46,92,79,73,29.99,29.90,21,7,26,0.00
2013-3-23,83,77,73,75,72,69,95,83,68,29.97,29.84,25,9,28,0.00
2013-3-24,80,77,72,76,73,69,93,88,82,29.88,29.72,27,12,40,0.00
2013-3-25,75,70,62,73,62,46,94,76,55,30.06,29.77,21,8,31,0.00
2013-3-26,64,59,53,50,45,41,71,60,47,30.26,30.05,25,9,32,0.00
2013-3-27,63,56,47,49,42,37,73,62,43,30.32,30.21,22,8,26,0.00
2013-3-28,75,59,46,52,45,40,82,61,30,30.31,30.19,14,6,19,0.00
2013-3-29,84,64,50,57,50,44,84,63,29,30.32,30.20,13,4,17,0.00
2013-3-30,79,66,55,60,55,51,87,70,48,30.27,30.15,13,4,19,0.00
2013-3-31,78,70,59,65,61,54,88,75,58,30.21,30.04,18,6,26,0.00
2013-4-1,80,73,65,72,69,62,94,87,77,30.08,30.00,15,4,18,0.00
2013-4-2,79,73,67,71,68,65,95,84,68,30.11,30.02,16,4,18,0.00
2013-4-3,85,76,68,73,69,64,93,81,61,30.08,29.96,20,8,24,0.00
2013-4-4,81,72,67,74,69,65,95,89,80,30.04,29.90,22,6,29,0.32
2013-4-5,72,69,65,69,66,59,94,88,78,30.03,29.81,38,7,50,0.75
2013-4-6,73,67,61,64,61,57,88,80,65,30.11,29.98,15,6,23,0.00
2013-4-7,86,73,63,68,64,60,93,77,48,30.13,30.04,13,5,17,0.01
2013-4-8,87,74,65,70,65,61,90,75,49,30.13,30.04,13,5,15,0.00
2013-4-9,88,75,64,71,66,60,91,75,48,30.14,30.06,14,5,17,0.00
2013-4-10,87,76,67,75,70,65,93,82,63,30.11,29.97,18,6,22,0.45
2013-4-11,86,79,72,75,73,70,95,83,66,30.01,29.87,25,10,29,0.01
2013-4-12,84,80,77,76,75,74,93,86,73,29.95,29.88,23,11,30,0.00
2013-4-13,87,80,76,76,73,71,93,80,65,29.99,29.85,14,4,18,0.00
2013-4-14,86,79,72,77,73,69,94,82,66,29.98,29.86,20,7,30,0.00
2013-4-15,87,80,69,78,73,65,90,81,69,30.07,29.95,14,4,21,0.00
2013-4-16,95,81,71,78,73,69,93,80,51,30.12,30.02,12,5,19,0.14
2013-4-17,92,79,71,76,72,69,92,80,53,30.12,30.00,16,7,18,0.82
2013-4-18,88,80,72,76,72,68,89,77,59,30.05,29.95,19,8,23,0.00
2013-4-19,87,80,74,77,74,71,93,81,65,30.04,29.95,21,8,23,0.00
2013-4-20,87,79,73,77,73,71,94,84,65,30.11,29.97,14,4,18,0.00
2013-4-21,89,75,69,78,71,67,93,87,65,30.11,29.99,13,6,27,1.52
2013-4-22,84,76,69,75,71,67,93,85,67,30.07,29.95,16,5,18,0.10
2013-4-23,91,77,68,74,68,64,94,77,49,30.09,29.98,17,9,20,0.01
2013-4-24,85,76,65,70,66,62,90,74,56,30.14,30.06,12,6,21,0.00
2013-4-25,87,77,67,71,68,64,91,75,51,30.21,30.09,17,5,22,0.00
2013-4-26,91,78,66,71,66,62,89,69,47,30.24,30.14,18,6,20,0.00
2013-4-27,90,78,67,69,65,61,91,67,42,30.21,30.06,16,7,21,0.00
2013-4-28,89,76,69,73,68,64,87,76,53,30.11,29.97,14,6,29,0.19
2013-4-29,84,76,67,75,68,64,89,79,63,30.03,29.93,24,6,28,0.00
2013-4-30,84,77,70,76,71,67,94,84,71,30.00,29.92,17,5,20,0.02
2013-5-1,81,73,69,76,70,66,94,90,79,30.04,29.90,16,4,31,0.48
2013-5-2,77,71,69,73,69,67,96,93,84,29.96,29.82,9,3,15,0.74
2013-5-3,80,73,66,72,69,64,96,87,74,29.86,29.72,13,4,19,0.00
2013-5-4,80,76,73,72,70,66,86,80,73,29.85,29.72,28,11,33,0.00
2013-5-5,77,73,70,68,63,59,85,70,57,29.98,29.81,19,10,26,0.00
2013-5-6,78,73,69,68,64,59,77,73,68,30.03,29.95,14,5,19,0.00
2013-5-7,77,71,62,67,63,58,87,75,67,30.09,30.00,17,6,22,0.00
2013-5-8,78,72,64,67,64,60,89,75,66,30.15,30.06,14,4,16,0.00
2013-5-9,82,71,63,68,64,60,92,79,56,30.16,30.08,8,2,12,0.00
2013-5-10,87,79,68,76,71,64,87,78,65,30.14,30.02,19,4,19,0.00
2013-5-11,86,79,72,77,74,70,94,84,71,30.07,30.01,16,5,26,0.00
2013-5-12,84,79,74,78,75,72,95,88,80,30.07,29.93,15,5,21,0.00
2013-5-13,83,78,74,74,72,62,94,80,64,30.13,30.01,20,6,23,0.00
2013-5-14,92,78,65,67,61,55,77,57,37,30.18,30.09,14,7,22,0.00
2013-5-15,91,76,63,67,62,58,83,64,44,30.19,30.07,12,6,19,0.00
2013-5-16,85,76,66,68,65,62,87,69,50,30.11,30.01,14,5,18,0.00
2013-5-17,86,78,69,70,68,64,88,71,51,30.09,30.03,15,4,19,0.00
2013-5-18,86,79,70,76,72,66,92,81,70,30.11,30.03,14,4,22,0.00
2013-5-19,86,79,73,75,72,70,91,80,64,30.10,29.98,16,4,24,0.01
2013-5-20,86,77,72,78,73,68,93,86,67,30.07,29.97,15,4,27,0.62
2013-5-21,87,78,70,76,72,68,94,83,62,30.01,29.91,11,5,19,0.00
2013-5-22,85,78,71,77,73,69,94,83,71,29.97,29.90,15,5,22,0.00
2013-5-23,84,80,75,75,73,71,92,81,71,30.04,29.93,13,6,19,0.00
2013-5-24,87,81,75,78,74,67,92,80,66,30.08,29.98,23,6,25,0.00
2013-5-25,96,82,71,77,70,67,90,70,46,30.16,30.04,17,7,22,0.00
2013-5-26,92,79,68,72,67,64,86,69,48,30.18,30.08,13,8,19,0.00
2013-5-27,88,77,70,78,70,65,89,80,62,30.17,30.03,16,7,28,0.46
2013-5-28,89,78,74,76,73,71,92,85,65,30.11,30.03,21,8,27,0.01
2013-5-29,83,76,73,76,73,70,94,88,78,30.09,30.01,18,9,24,0.03
2013-5-30,89,78,72,78,74,70,93,86,68,30.05,29.96,18,8,24,0.17
2013-5-31,87,78,74,78,75,71,94,89,70,30.05,30.00,12,5,15,0.44
2013-6-1,86,80,75,79,76,73,96,88,74,30.04,29.96,12,5,16,0.12
2013-6-2,87,79,74,78,75,72,95,87,72,30.01,29.93,23,6,29,0.00
2013-6-3,82,79,77,77,75,73,92,89,83,30.03,29.93,16,4,20,0.38
2013-6-4,82,77,73,78,74,71,95,91,86,30.04,29.96,22,4,29,0.53
2013-6-5,80,78,75,78,76,73,95,94,92,30.01,29.86,15,6,19,0.23
2013-6-6,83,78,74,80,75,71,95,91,82,29.88,29.77,25,12,38,1.28
2013-6-7,82,79,76,78,76,73,95,89,77,30.00,29.82,16,6,26,1.13
2013-6-8,89,82,78,80,77,74,94,86,73,30.10,29.98,19,6,22,0.03
2013-6-9,91,82,77,79,77,75,95,85,64,30.10,30.00,16,5,17,0.14
2013-6-10,90,82,76,80,77,75,95,85,65,30.08,30.00,16,5,16,0.00
2013-6-11,88,82,77,80,76,71,94,83,63,30.08,30.00,15,4,25,0.00
2013-6-12,89,79,74,81,75,70,94,88,70,30.08,30.03,15,4,24,0.08
2013-6-13,86,79,72,78,74,71,95,86,65,30.06,29.95,17,3,17,0.00
2013-6-14,86,82,76,78,76,74,93,84,75,29.99,29.91,14,5,21,0.00
2013-6-15,86,82,77,78,76,73,90,81,74,30.05,29.95,14,5,19,0.00
2013-6-16,91,84,77,80,77,75,92,81,65,30.11,30.01,14,4,21,0.04
2013-6-17,91,83,76,80,77,74,94,83,60,30.11,30.01,14,4,19,0.11
2013-6-18,90,83,77,80,77,75,94,83,67,30.07,29.98,14,5,22,0.05
2013-6-19,89,80,75,80,76,72,94,85,67,30.07,29.98,14,4,18,0.13
2013-6-20,89,80,74,80,75,70,93,84,65,30.10,30.03,17,4,41,0.91
2013-6-21,89,80,73,79,74,71,95,83,66,30.12,30.04,11,4,15,0.00
2013-6-22,91,82,74,78,75,72,94,80,61,30.11,30.02,11,4,20,0.02
2013-6-23,90,80,75,78,75,73,94,86,64,30.13,30.06,7,3,20,0.04
2013-6-24,90,80,75,79,75,73,94,86,64,30.16,30.07,24,4,37,0.61
2013-6-25,94,79,74,80,75,71,95,89,61,30.14,30.03,14,4,24,0.59
2013-6-26,90,80,75,80,76,73,96,87,69,30.08,30.01,15,4,24,0.03
2013-6-27,88,80,73,80,76,72,96,86,72,30.06,29.96,16,4,29,0.00
2013-6-28,88,82,76,79,77,74,94,83,70,30.00,29.89,16,4,18,0.00
2013-6-29,88,84,78,79,77,75,92,81,73,29.93,29.85,16,5,18,0.00
2013-6-30,87,84,77,79,78,73,91,81,75,29.93,29.85,23,11,31,0.02
2013-7-1,86,78,73,79,75,71,96,90,76,30.03,29.90,28,7,44,0.72
2013-7-2,88,79,74,80,75,73,95,89,73,30.11,29.97,19,4,24,0.27
2013-7-3,88,78,74,79,75,72,95,90,72,30.12,30.04,19,5,27,0.13
2013-7-4,88,80,73,79,76,72,95,88,70,30.14,30.06,16,5,22,0.20
2013-7-5,89,78,75,78,74,71,94,88,68,30.13,30.05,19,5,42,0.86
2013-7-6,93,82,75,80,76,74,96,83,57,30.10,30.00,11,4,20,0.01
2013-7-7,94,83,77,80,77,75,94,81,58,30.11,30.02,16,6,23,0.03
2013-7-8,94,82,76,78,75,73,94,81,51,30.15,30.07,12,5,19,0.00
2013-7-9,91,81,76,79,75,73,92,83,60,30.15,30.06,19,4,22,0.02
2013-7-10,85,79,74,77,75,72,94,86,73,30.10,30.01,14,2,19,0.00
2013-7-11,87,81,75,79,76,73,95,85,69,30.05,29.95,9,2,15,0.02
2013-7-12,87,81,76,78,76,73,93,83,72,29.98,29.90,10,2,19,0.00
2013-7-13,86,79,76,79,75,73,94,88,76,30.01,29.92,15,4,26,0.41
2013-7-14,83,77,73,78,74,72,96,92,81,30.09,29.97,16,3,26,3.01
2013-7-15,91,78,73,79,74,71,94,86,62,30.09,30.02,10,4,16,0.12
2013-7-16,89,80,74,78,74,71,94,82,66,30.12,30.05,16,7,27,0.02
2013-7-17,88,80,75,77,74,72,93,81,66,30.12,30.02,15,7,21,0.02
2013-7-18,82,75,72,77,73,70,95,92,83,30.14,30.05,16,3,29,0.58
2013-7-19,91,81,72,80,76,71,96,86,65,30.12,30.04,15,4,22,0.00
2013-7-20,89,81,77,81,77,74,95,87,76,30.11,30.03,12,4,16,0.00
2013-7-21,88,82,78,81,78,76,95,88,75,30.15,30.06,8,3,15,0.00
2013-7-22,88,82,76,80,77,74,94,84,73,30.15,30.08,14,4,20,0.00
2013-7-23,88,83,78,79,78,75,94,84,71,30.12,30.01,12,4,17,0.00
2013-7-24,87,84,80,78,76,74,85,78,71,30.05,29.95,16,6,19,0.00
2013-7-25,88,84,82,80,77,74,81,79,76,30.05,29.93,18,8,22,0.00
2013-7-26,88,85,80,80,78,76,90,81,75,30.05,29.98,19,8,25,0.06
2013-7-27,88,82,76,81,77,74,93,84,76,30.02,29.95,16,4,21,0.38
2013-7-28,89,84,78,78,76,75,92,78,66,30.07,29.96,10,2,16,0.00
2013-7-29,90,80,76,80,75,73,92,86,69,30.14,30.04,14,2,16,0.02
2013-7-30,94,80,76,83,77,74,95,90,63,30.16,30.08,21,2,26,0.26
2013-7-31,93,81,76,82,77,73,96,87,65,30.12,30.00,15,4,23,0.01
2013-8-1,90,81,75,79,76,73,95,85,65,30.07,29.93,14,4,27,0.03
2013-8-2,88,82,75,80,77,73,95,84,73,30.06,29.95,11,3,15,0.00
2013-8-3,86,82,79,80,78,75,93,85,79,30.13,30.03,6,2,14,0.00
2013-8-4,88,83,76,81,78,74,95,86,76,30.12,30.03,17,4,23,0.05
2013-8-5,89,86,83,81,79,77,86,81,75,30.06,29.97,18,5,22,0.00
2013-8-6,90,84,79,82,79,76,94,83,68,30.00,29.91,13,2,15,0.00
2013-8-7,90,81,77,80,77,75,93,87,71,29.97,29.90,10,3,14,0.14
2013-8-8,93,82,77,80,77,74,95,84,59,30.02,29.91,14,5,28,0.38
2013-8-9,90,80,75,79,76,73,95,88,66,30.06,29.96,11,4,21,0.13
2013-8-10,96,84,75,80,76,73,95,77,53,30.11,30.02,14,5,18,0.00
2013-8-11,98,87,78,82,78,75,93,75,54,30.13,30.04,11,5,16,0.00
2013-8-12,98,86,76,79,76,74,94,75,51,30.12,30.00,16,6,18,0.00
2013-8-13,91,83,78,79,77,74,93,83,67,30.05,29.95,10,4,14,0.42
2013-8-14,89,82,75,79,76,73,94,83,65,30.04,29.93,13,4,21,0.02
2013-8-15,85,80,76,80,76,74,95,89,80,30.07,29.95,7,2,14,0.11
2013-8-16,95,83,77,81,77,72,93,82,60,30.05,29.96,20,4,27,0.33
2013-8-17,94,82,77,82,78,74,95,86,60,30.08,29.98,15,4,27,0.09
2013-8-18,94,81,78,81,77,75,95,87,60,30.09,29.98,18,5,28,0.84
2013-8-19,94,79,74,81,76,71,95,89,65,30.08,29.97,15,5,17,1.37
2013-8-20,91,80,74,80,76,73,96,88,67,30.06,29.99,13,4,19,0.17
2013-8-21,94,82,77,83,78,75,94,88,66,30.07,29.98,17,6,20,0.48
2013-8-22,93,82,76,82,77,74,95,87,62,30.06,29.95,13,5,20,0.29
2013-8-23,90,80,76,82,76,73,96,90,72,30.02,29.94,13,4,25,1.30
2013-8-24,92,82,76,81,77,74,96,86,65,30.12,29.98,16,4,19,0.00
2013-8-25,93,82,76,82,77,74,93,85,65,30.14,30.03,14,6,18,0.02
2013-8-26,89,79,73,81,76,72,95,90,69,30.11,30.00,16,4,23,0.46
2013-8-27,89,78,72,79,74,71,96,89,65,30.06,29.99,17,4,20,0.32
2013-8-28,87,78,74,77,74,72,96,88,64,30.04,29.97,11,4,15,0.19
2013-8-29,87,81,74,79,76,73,95,84,72,30.04,29.95,14,4,18,0.00
2013-8-30,88,82,76,79,77,74,93,84,72,30.01,29.91,12,3,16,0.00
2013-8-31,88,82,76,79,76,73,94,82,70,30.00,29.92,11,4,21,0.00
2013-9-1,89,82,77,80,76,74,94,84,70,30.01,29.93,12,4,17,0.04
2013-9-2,86,80,76,80,76,74,93,88,77,30.04,29.95,10,3,15,0.21
2013-9-3,92,82,74,80,76,73,95,84,63,30.04,29.94,11,3,16,0.00
2013-9-4,91,81,77,82,77,74,94,89,71,30.07,29.95,9,4,26,0.24
2013-9-5,94,82,77,82,78,75,95,88,65,30.08,30.00,11,4,14,0.42
2013-9-6,92,82,73,82,77,68,95,85,65,30.07,29.91,15,6,46,1.56
2013-9-7,89,80,74,80,75,71,95,86,69,30.01,29.91,14,4,22,0.49
2013-9-8,88,79,73,78,74,70,95,85,69,29.96,29.86,15,4,20,0.00
2013-9-9,95,82,75,80,76,72,94,83,58,30.01,29.91,11,4,20,0.00
2013-9-10,95,82,76,80,76,73,94,82,60,30.05,29.96,16,7,27,0.00
2013-9-11,88,79,74,80,76,71,94,89,73,30.06,29.97,17,5,23,1.92
2013-9-12,87,80,76,80,76,73,95,87,76,30.03,29.89,9,2,13,0.03
2013-9-13,88,81,73,78,75,72,95,83,67,29.91,29.82,13,3,15,0.00
2013-9-14,89,83,76,78,76,74,93,80,67,29.97,29.84,13,2,16,0.00
2013-9-15,91,79,75,81,76,72,94,89,70,30.05,29.93,16,4,37,0.40
2013-9-16,88,80,76,81,76,74,95,90,75,30.04,29.95,15,6,20,0.26
2013-9-17,90,78,75,81,75,73,96,93,71,30.03,29.92,17,5,24,2.12
2013-9-18,91,79,74,82,76,73,96,91,68,30.02,29.93,11,5,16,0.68
2013-9-19,95,80,72,81,76,71,96,88,61,30.02,29.94,12,4,27,0.01
2013-9-20,93,82,75,78,74,71,95,78,56,30.01,29.89,12,6,16,0.00
2013-9-21,88,80,73,77,74,71,93,81,64,29.93,29.79,14,4,16,0.00
2013-9-22,88,82,76,80,77,74,94,85,75,29.88,29.78,13,4,21,0.00
2013-9-23,86,82,77,81,78,75,94,89,82,29.97,29.85,14,5,23,0.16
2013-9-24,87,80,76,81,77,73,96,90,77,29.97,29.91,18,4,26,0.11
2013-9-25,86,79,76,80,76,74,96,91,82,29.93,29.81,11,3,18,0.15
2013-9-26,87,84,81,82,80,76,91,88,81,29.90,29.82,28,8,34,0.30
2013-9-27,87,80,74,78,75,72,94,82,63,29.93,29.85,16,4,21,0.00
2013-9-28,94,81,74,79,74,71,93,80,54,29.98,29.88,10,5,19,0.00
2013-9-29,92,80,73,78,74,71,94,82,59,29.98,29.88,14,5,16,0.01
2013-9-30,90,79,73,77,73,67,94,82,64,30.01,29.90,15,4,17,0.16
2013-10-1,92,80,74,80,75,70,94,83,63,30.03,29.94,11,5,15,0.06
2013-10-2,92,80,75,81,75,72,93,85,65,30.04,29.94,17,7,26,0.08
2013-10-3,89,79,74,81,76,72,95,89,72,30.05,29.95,11,4,22,0.88
2013-10-4,93,81,74,80,75,73,95,84,60,30.07,29.98,9,4,13,0.00
2013-10-5,93,81,74,76,73,71,91,78,51,30.05,29.93,11,4,13,0.00
2013-10-6,86,80,73,77,74,70,93,82,69,29.98,29.89,12,4,16,0.00
2013-10-7,87,81,77,79,76,74,93,85,75,29.91,29.82,20,6,35,0.05
2013-10-8,85,82,78,77,74,69,87,78,71,29.96,29.85,15,7,18,0.00
2013-10-9,89,80,75,78,74,71,92,81,68,30.02,29.93,14,5,16,0.00
2013-10-10,92,79,71,77,72,68,93,80,55,30.04,29.94,11,6,15,0.00
2013-10-11,94,80,70,74,70,66,94,73,46,30.03,29.94,10,4,14,0.00
2013-10-12,88,78,70,74,70,67,93,76,59,30.05,29.96,17,4,17,0.00
2013-10-13,89,79,72,75,70,66,91,75,59,30.06,29.97,11,3,15,0.00
2013-10-14,92,79,70,74,69,65,90,73,47,30.03,29.91,10,4,17,0.00
2013-10-15,92,79,71,75,71,69,93,78,50,29.98,29.87,14,5,19,0.00
2013-10-16,88,78,71,75,71,68,93,80,63,29.97,29.89,13,4,17,0.00
2013-10-17,87,79,71,76,72,69,93,80,64,29.98,29.90,11,3,17,0.00
2013-10-18,92,81,73,76,74,70,93,79,57,29.99,29.90,10,2,15,0.00
2013-10-19,88,81,74,79,76,71,93,84,71,29.96,29.87,14,4,16,0.00
2013-10-20,88,82,76,78,76,74,95,84,69,29.96,29.88,10,2,14,0.00
2013-10-21,88,81,76,80,76,73,93,85,74,30.00,29.92,13,2,18,0.00
2013-10-22,87,81,75,79,76,73,95,86,76,29.97,29.85,16,5,31,0.00
2013-10-23,89,81,74,77,73,64,88,77,61,29.99,29.83,16,5,25,0.01
2013-10-24,77,73,69,66,62,57,79,69,61,30.12,29.97,16,9,20,0.00
2013-10-25,87,74,66,69,64,60,84,73,53,30.20,30.10,13,7,20,0.00
2013-10-26,91,76,65,70,64,60,85,69,43,30.18,30.06,14,6,18,0.00
2013-10-27,92,75,64,67,63,60,88,68,39,30.11,30.02,10,5,15,0.00
2013-10-28,92,77,66,71,66,63,93,73,46,30.16,30.07,13,6,16,0.00
2013-10-29,92,78,67,73,68,64,91,74,51,30.19,30.08,17,7,23,0.00
2013-10-30,92,78,69,73,67,65,92,73,43,30.19,30.06,17,7,22,0.00
2013-10-31,90,77,68,73,69,65,92,78,53,30.11,29.98,14,5,20,0.00
2013-11-1,84,77,69,76,72,67,95,86,72,30.02,29.90,15,3,21,0.00
2013-11-2,85,77,72,76,72,64,96,85,70,29.97,29.85,15,4,22,0.00
2013-11-3,87,75,67,64,58,52,79,59,36,30.06,29.94,20,8,27,0.00
2013-11-4,84,73,65,70,62,56,81,69,53,30.10,30.03,26,9,27,0.00
2013-11-5,87,77,70,73,69,65,89,78,59,30.07,30.01,22,11,29,0.00
2013-11-6,91,79,72,75,71,67,89,76,57,30.06,29.97,17,7,23,0.00
2013-11-7,86,76,70,76,70,67,93,84,64,30.04,29.95,13,4,17,0.00
2013-11-8,90,77,69,74,70,66,92,78,58,30.06,29.97,16,8,21,0.00
2013-11-9,85,76,72,76,71,68,91,85,73,30.11,30.03,21,9,29,0.00
2013-11-10,89,79,72,75,71,69,92,78,59,30.13,30.04,17,8,21,0.00
2013-11-11,92,78,69,75,70,66,92,77,53,30.12,30.03,13,7,17,0.00
2013-11-12,90,77,69,74,70,66,91,78,54,30.09,29.97,11,5,14,0.00
2013-11-13,76,70,63,69,61,54,87,74,66,30.21,30.03,26,12,35,0.00
2013-11-14,84,70,61,63,59,54,84,68,46,30.23,30.13,20,10,25,0.00
2013-11-15,85,75,67,70,67,60,85,75,60,30.14,30.00,17,8,21,0.00
2013-11-16,86,76,72,74,70,66,91,80,63,30.09,30.00,16,7,20,0.01
2013-11-17,87,77,70,74,71,67,93,82,63,30.07,29.98,14,5,19,0.00
2013-11-18,83,76,69,75,71,67,95,86,73,30.04,29.93,10,2,13,0.00
2013-11-19,82,77,72,75,72,70,94,85,73,29.96,29.87,11,3,16,0.00
2013-11-20,89,76,68,76,72,67,95,85,62,30.06,29.94,9,4,16,0.00
2013-11-21,86,77,72,76,72,70,95,85,68,30.14,30.05,14,4,15,0.00
2013-11-22,89,78,72,75,71,68,94,81,60,30.15,30.05,15,7,20,0.00
2013-11-23,91,76,69,77,71,67,93,84,58,30.09,29.97,12,5,15,0.11
2013-11-24,84,74,67,75,69,63,95,84,64,30.16,30.00,18,7,27,0.01
2013-11-25,84,73,66,68,65,62,89,77,58,30.17,30.04,21,11,27,0.00
2013-11-26,83,76,71,76,72,67,94,87,75,30.03,29.82,30,10,33,0.61
2013-11-27,76,71,58,73,64,51,94,79,60,30.16,29.79,24,10,31,0.10
2013-11-28,75,60,45,57,50,41,84,72,51,30.28,30.16,15,8,22,0.00
2013-11-29,82,67,56,66,59,53,90,77,57,30.29,30.18,20,10,24,0.00
2013-11-30,84,69,59,70,63,56,93,82,61,30.24,30.13,20,8,22,0.00
2013-12-1,81,70,63,71,65,61,95,86,69,30.14,29.99,11,5,15,0.00
2013-12-2,73,68,65,67,65,63,95,89,79,29.99,29.85,13,3,14,0.00
2013-12-3,78,70,62,68,65,60,93,83,68,30.00,29.91,17,5,19,0.00
2013-12-4,81,73,65,72,67,63,95,83,63,30.09,29.99,16,3,18,0.00
2013-12-5,86,74,66,73,68,64,95,82,60,30.17,30.07,11,4,19,0.00
2013-12-6,86,76,69,75,70,66,95,83,64,30.19,30.08,17,6,24,0.00
2013-12-7,89,74,65,73,68,63,94,82,57,30.22,30.12,12,3,27,0.00
2013-12-8,91,77,69,73,69,66,93,79,50,30.20,30.09,15,5,17,0.00
2013-12-9,87,76,70,74,69,67,94,80,57,30.17,30.07,19,6,26,0.00
2013-12-10,84,76,69,74,70,66,94,84,68,30.17,30.08,12,3,15,0.00
2013-12-11,92,77,68,75,71,65,94,82,55,30.22,30.12,13,4,16,0.00
2013-12-12,80,71,61,73,66,50,94,84,66,30.25,30.15,18,7,24,0.00
2013-12-13,85,70,57,68,60,50,87,74,56,30.22,30.08,17,8,20,0.00
2013-12-14,85,76,68,74,70,65,94,84,66,30.10,29.98,23,9,27,0.00
2013-12-15,77,74,69,75,72,64,95,93,85,30.09,29.94,12,6,15,0.09
2013-12-16,72,66,59,64,60,54,87,80,72,30.19,30.08,14,6,22,0.00
2013-12-17,84,66,53,67,58,47,86,76,57,30.22,30.11,12,6,17,0.00
2013-12-18,81,66,57,60,52,45,89,65,29,30.27,30.17,14,6,19,0.00
2013-12-19,85,68,56,64,57,49,84,70,45,30.25,30.13,14,6,19,0.00
2013-12-20,88,74,63,73,66,59,90,78,60,30.17,30.07,14,6,22,0.00
2013-12-21,85,76,71,75,71,68,94,84,68,30.14,30.03,21,7,27,0.00
2013-12-22,84,77,71,74,71,69,94,84,65,30.16,30.07,23,7,27,0.00
2013-12-23,84,76,71,76,72,69,95,87,73,30.17,30.11,19,5,23,0.00
2013-12-24,80,70,60,71,65,49,95,84,60,30.22,30.11,18,6,26,0.01
2013-12-25,85,70,59,70,61,51,84,74,57,30.18,30.08,17,9,22,0.00
2013-12-26,85,73,66,73,67,62,90,82,63,30.18,30.05,11,6,14,0.00
2013-12-27,89,75,67,74,69,65,94,83,60,30.20,30.07,15,8,20,0.00
2013-12-28,83,74,68,74,70,66,93,86,71,30.17,30.02,15,7,22,0.00
2013-12-29,77,75,72,75,72,69,95,93,89,30.03,29.92,23,8,32,0.28
2013-12-30,77,71,67,69,66,63,93,84,73,30.16,30.01,10,4,16,0.00
2013-12-31,80,70,65,64,61,58,89,75,48,30.25,30.13,16,9,23,0.00
2014-1-1,86,74,65,74,68,61,92,81,64,30.19,30.04,14,6,20,0.00
2014-1-2,80,74,68,74,71,66,96,90,79,30.03,29.90,22,7,30,0.09